TimeCDT,TemperatureF,Dew PointF,Humidity,Sea Level PressureIn,VisibilityMPH,Wind Direction,Wind SpeedMPH,Gust SpeedMPH,PrecipitationIn,Events,Conditions,WindDirDegrees,DateUTC
12:53 AM,70.0,68.0,93,29.88,6.0,SSW,5.8,-,N/A,,Clear,210,2013-08-06 05:53:00
1:53 AM,68.0,66.9,96,29.88,4.0,SW,3.5,-,N/A,,Clear,220,2013-08-06 06:53:00
2:29 AM,66.2,66.2,100,29.88,1.8,Calm,Calm,-,N/A,,Clear,0,2013-08-06 07:29:00
2:43 AM,66.2,66.2,100,29.87,0.8,Calm,Calm,-,N/A,,Mist,0,2013-08-06 07:43:00
2:53 AM,66.9,66.9,100,29.85,0.5,Calm,Calm,-,N/A,Fog,Fog,0,2013-08-06 07:53:00
3:04 AM,66.2,66.2,100,29.86,0.2,South,4.6,-,N/A,Fog,Fog,180,2013-08-06 08:04:00
3:17 AM,66.2,66.2,100,29.85,1.0,South,4.6,-,N/A,,Mist,190,2013-08-06 08:17:00
3:28 AM,66.2,66.2,100,29.85,2.5,South,4.6,-,N/A,,Overcast,190,2013-08-06 08:28:00
3:42 AM,68.0,68.0,100,29.84,2.5,South,5.8,-,N/A,,Overcast,180,2013-08-06 08:42:00
3:53 AM,68.0,68.0,100,29.83,2.5,South,8.1,-,N/A,,Overcast,190,2013-08-06 08:53:00
4:06 AM,68.0,68.0,100,29.85,1.5,South,8.1,-,N/A,,Overcast,190,2013-08-06 09:06:00
4:53 AM,68.0,68.0,100,29.83,0.8,SSW,8.1,-,N/A,,Mist,200,2013-08-06 09:53:00
5:21 AM,68.0,68.0,100,29.85,1.0,South,8.1,-,N/A,,Mist,190,2013-08-06 10:21:00
5:51 AM,68.0,68.0,100,29.86,2.0,South,9.2,-,N/A,,Overcast,190,2013-08-06 10:51:00
5:53 AM,68.0,68.0,100,29.84,2.0,South,8.1,-,N/A,,Overcast,190,2013-08-06 10:53:00
6:11 AM,68.0,68.0,100,29.86,1.5,South,5.8,-,N/A,,Overcast,190,2013-08-06 11:11:00
6:53 AM,68.0,68.0,100,29.87,1.8,South,6.9,-,N/A,,Overcast,190,2013-08-06 11:53:00
7:53 AM,68.0,68.0,100,29.90,0.8,SSW,6.9,-,N/A,,Overcast,200,2013-08-06 12:53:00
8:08 AM,69.8,68.0,94,29.91,1.2,SSW,5.8,-,N/A,,Overcast,200,2013-08-06 13:08:00
8:39 AM,69.8,69.8,100,29.91,2.5,SSW,6.9,-,N/A,,Overcast,210,2013-08-06 13:39:00
8:50 AM,69.8,69.8,100,29.91,3.0,SSW,8.1,-,N/A,,Overcast,210,2013-08-06 13:50:00
8:53 AM,70.0,69.1,97,29.90,3.0,SSW,8.1,-,N/A,,Overcast,210,2013-08-06 13:53:00
9:11 AM,69.8,69.8,100,29.90,2.0,SSW,9.2,-,N/A,,Overcast,200,2013-08-06 14:11:00
9:44 AM,71.6,69.8,94,29.90,3.0,SW,9.2,-,N/A,,Overcast,220,2013-08-06 14:44:00
9:53 AM,72.0,71.1,97,29.89,4.0,SSW,8.1,-,N/A,,Overcast,210,2013-08-06 14:53:00
10:53 AM,75.0,72.0,90,29.89,5.0,WSW,4.6,-,N/A,,Overcast,240,2013-08-06 15:53:00
11:04 AM,75.2,71.6,89,29.90,5.0,Calm,Calm,-,N/A,,Overcast,0,2013-08-06 16:04:00
11:28 AM,78.8,71.6,78,29.89,7.0,Calm,Calm,-,N/A,,Scattered Clouds,0,2013-08-06 16:28:00
11:53 AM,79.0,73.0,82,29.87,7.0,SW,3.5,-,N/A,,Scattered Clouds,220,2013-08-06 16:53:00
12:36 PM,82.4,73.4,74,29.88,7.0,Variable,3.5,-,N/A,,Mostly Cloudy,0,2013-08-06 17:36:00
12:43 PM,82.4,73.4,74,29.88,7.0,Variable,3.5,-,N/A,,Scattered Clouds,0,2013-08-06 17:43:00
12:53 PM,82.9,73.9,74,29.86,8.0,Calm,Calm,-,N/A,,Partly Cloudy,0,2013-08-06 17:53:00
1:53 PM,84.9,72.0,65,29.83,9.0,Calm,Calm,-,N/A,,Clear,0,2013-08-06 18:53:00
2:53 PM,84.9,71.1,63,29.79,10.0,SSE,10.4,-,N/A,,Clear,150,2013-08-06 19:53:00
3:53 PM,87.1,72.0,61,29.81,10.0,South,6.9,-,N/A,,Clear,170,2013-08-06 20:53:00
4:53 PM,87.1,71.1,59,29.81,10.0,SSW,5.8,-,N/A,,Clear,210,2013-08-06 21:53:00
5:53 PM,86.0,72.0,63,29.82,10.0,SSW,6.9,-,N/A,,Clear,200,2013-08-06 22:53:00
6:53 PM,82.9,73.9,74,29.81,10.0,South,9.2,-,N/A,,Partly Cloudy,180,2013-08-06 23:53:00
7:53 PM,80.1,73.9,81,29.82,6.0,South,4.6,-,N/A,,Haze,190,2013-08-07 00:53:00
8:53 PM,79.0,73.9,84,29.83,10.0,South,3.5,-,N/A,,Clear,190,2013-08-07 01:53:00
9:53 PM,78.1,73.9,87,29.86,7.0,SSW,3.5,-,N/A,,Partly Cloudy,200,2013-08-07 02:53:00
10:53 PM,75.0,72.0,90,29.85,6.0,Calm,Calm,-,N/A,,Clear,0,2013-08-07 03:53:00
11:53 PM,75.9,73.0,91,29.81,10.0,SSW,11.5,-,N/A,,Clear,200,2013-08-07 04:53:00